Location: Gleizolles
(44.4833°N, 6.7667°E)
Time: 19:20:42
(UTC+00:00)

Envisat - Pass Details

Date: 05 December 2022
Orbit: 763 x 765 km, 98.2° (Epoch: 06 February)

Event Time Altitude Azimuth Distance (km) Brightness Sun altitude
Rises 04:45:05 0° 4° (N) 3,244 6.2 -22.1°
Reaches altitude 10° 04:47:36 10° 354° (N) 2,313 5.3 -21.7°
Enters shadow 04:48:33 15° 348° (NNW) 1,993 4.9 -21.5°
